Hourly Weather Artashat

Today, 15 August, Saturday

Time Temperature Precipitation Wind Pressure Humidity
00:00 +16°C° 0.8 mm 2 mps 600 mmHg 69%
01:00 +16°C° 0.1 mm 2 mps 600 mmHg 69%
02:00 +15°C° 0.1 mm 2 mps 599 mmHg 70%
03:00 +15°C° 0 mm 1 mps 599 mmHg 70%
04:00 +14°C° 0 mm 1 mps 599 mmHg 69%
05:00 +14°C° 0 mm 1 mps 599 mmHg 68%
06:00 +14°C° 0 mm 1 mps 600 mmHg 68%
07:00 +15°C° 0 mm 2 mps 600 mmHg 63%
08:00 +16°C° 0 mm 2 mps 600 mmHg 59%
09:00 +17°C° 0 mm 2 mps 600 mmHg 54%
10:00 +18°C° 0 mm 2 mps 600 mmHg 52%
11:00 +19°C° 0 mm 2 mps 601 mmHg 49%
12:00 +20°C° 0 mm 3 mps 601 mmHg 46%
13:00 +21°C° 0 mm 2 mps 601 mmHg 44%
14:00 +21°C° 0 mm 2 mps 601 mmHg 43%
15:00 +23°C° 0 mm 2 mps 601 mmHg 41%
16:00 +22°C° 0 mm 3 mps 601 mmHg 42%
17:00 +21°C° 0 mm 3 mps 601 mmHg 42%
18:00 +21°C° 0 mm 3 mps 601 mmHg 43%
19:00 +20°C° 0 mm 3 mps 601 mmHg 46%
20:00 +19°C° 0 mm 2 mps 601 mmHg 50%
21:00 +19°C° 0 mm 2 mps 601 mmHg 54%
22:00 +18°C° 0 mm 2 mps 601 mmHg 57%
23:00 +17°C° 0 mm 2 mps 601 mmHg 60%

Tomorrow, 16 August, Sunday

Time Temperature Precipitation Wind Pressure Humidity
00:00 +16°C° 0 mm 1 mps 601 mmHg 63%
01:00 +15°C° 0 mm 1 mps 600 mmHg 64%
02:00 +15°C° 0 mm 1 mps 600 mmHg 65%
03:00 +15°C° 0 mm 1 mps 600 mmHg 66%
04:00 +14°C° 0 mm 1 mps 600 mmHg 67%
05:00 +14°C° 0 mm 1 mps 600 mmHg 68%
06:00 +14°C° 0 mm 1 mps 600 mmHg 69%
07:00 +15°C° 0 mm 2 mps 600 mmHg 65%
08:00 +16°C° 0 mm 2 mps 600 mmHg 61%
09:00 +17°C° 0 mm 3 mps 601 mmHg 58%
10:00 +18°C° 0 mm 3 mps 601 mmHg 54%
11:00 +19°C° 0 mm 4 mps 601 mmHg 51%
12:00 +20°C° 0 mm 4 mps 601 mmHg 48%
13:00 +21°C° 0.1 mm 4 mps 601 mmHg 46%
14:00 +22°C° 0.1 mm 4 mps 601 mmHg 43%
15:00 +22°C° 0.1 mm 4 mps 601 mmHg 41%
16:00 +22°C° 0.2 mm 4 mps 601 mmHg 43%
17:00 +22°C° 0.2 mm 3 mps 601 mmHg 44%
18:00 +21°C° 0.2 mm 3 mps 601 mmHg 45%
19:00 +20°C° 0.7 mm 2 mps 601 mmHg 53%
20:00 +18°C° 0.7 mm 2 mps 600 mmHg 60%
21:00 +18°C° 0.7 mm 1 mps 600 mmHg 68%
22:00 +16°C° 0.3 mm 1 mps 600 mmHg 70%
23:00 +16°C° 0.3 mm 1 mps 599 mmHg 73%

Day after tomorrow, 17 August, Monday

Time Temperature Precipitation Wind Pressure Humidity
00:00 +15°C° 0.3 mm 1 mps 599 mmHg 76%
01:00 +15°C° 0.1 mm 1 mps 599 mmHg 78%
02:00 +14°C° 0.1 mm 1 mps 599 mmHg 81%
03:00 +14°C° 0.1 mm 2 mps 598 mmHg 83%
04:00 +13°C° 0 mm 1 mps 599 mmHg 85%
05:00 +13°C° 0 mm 1 mps 599 mmHg 86%
06:00 +13°C° 0 mm 1 mps 599 mmHg 87%
07:00 +14°C° 0 mm 1 mps 599 mmHg 82%
08:00 +15°C° 0 mm 2 mps 599 mmHg 78%
09:00 +15°C° 0 mm 2 mps 600 mmHg 73%
10:00 +16°C° 0 mm 2 mps 600 mmHg 69%
11:00 +17°C° 0 mm 2 mps 600 mmHg 64%
12:00 +18°C° 0 mm 2 mps 601 mmHg 59%
13:00 +19°C° 0.1 mm 2 mps 601 mmHg 55%
14:00 +20°C° 0.1 mm 3 mps 601 mmHg 51%
15:00 +21°C° 0.1 mm 3 mps 601 mmHg 47%
16:00 +21°C° 0.1 mm 3 mps 601 mmHg 48%
17:00 +21°C° 0.1 mm 3 mps 601 mmHg 49%
18:00 +21°C° 0.1 mm 3 mps 601 mmHg 49%
19:00 +19°C° 0.3 mm 3 mps 601 mmHg 54%
20:00 +18°C° 0.3 mm 2 mps 602 mmHg 59%
21:00 +17°C° 0.3 mm 2 mps 602 mmHg 64%
22:00 +16°C° 0.2 mm 2 mps 602 mmHg 67%
23:00 +16°C° 0.2 mm 1 mps 601 mmHg 69%

18 August, Tuesday

Time Temperature Precipitation Wind Pressure Humidity
00:00 +15°C° 0.2 mm 1 mps 601 mmHg 72%
01:00 +14°C° 0 mm 1 mps 601 mmHg 74%
02:00 +14°C° 0 mm 1 mps 601 mmHg 75%
03:00 +13°C° 0 mm 1 mps 601 mmHg 77%
04:00 +13°C° 0 mm 1 mps 601 mmHg 77%
05:00 +13°C° 0 mm 1 mps 601 mmHg 78%
06:00 +13°C° 0 mm 1 mps 600 mmHg 78%
07:00 +14°C° 0 mm 1 mps 601 mmHg 74%
08:00 +15°C° 0 mm 2 mps 601 mmHg 69%
09:00 +16°C° 0 mm 2 mps 601 mmHg 64%
10:00 +17°C° 0 mm 3 mps 602 mmHg 59%
11:00 +18°C° 0 mm 3 mps 602 mmHg 55%
12:00 +20°C° 0 mm 3 mps 602 mmHg 50%
13:00 +20°C° 0 mm 3 mps 602 mmHg 48%
14:00 +21°C° 0 mm 3 mps 602 mmHg 45%
15:00 +22°C° 0 mm 3 mps 601 mmHg 43%
16:00 +22°C° 0 mm 3 mps 601 mmHg 43%
17:00 +21°C° 0 mm 3 mps 601 mmHg 43%
18:00 +21°C° 0 mm 3 mps 601 mmHg 43%
19:00 +20°C° 0 mm 2 mps 601 mmHg 46%
20:00 +19°C° 0 mm 2 mps 601 mmHg 49%
21:00 +19°C° 0 mm 1 mps 601 mmHg 52%
22:00 +18°C° 0 mm 1 mps 601 mmHg 55%
23:00 +18°C° 0 mm 1 mps 600 mmHg 59%

19 August, Wednesday

Time Temperature Precipitation Wind Pressure Humidity
00:00 +16°C° 0 mm 1 mps 600 mmHg 62%
01:00 +15°C° 0 mm 1 mps 600 mmHg 64%
02:00 +15°C° 0 mm 1 mps 600 mmHg 66%
03:00 +14°C° 0 mm 1 mps 599 mmHg 69%
04:00 +14°C° 0 mm 1 mps 599 mmHg 70%
05:00 +14°C° 0 mm 1 mps 599 mmHg 71%
06:00 +14°C° 0 mm 1 mps 599 mmHg 72%
07:00 +15°C° 0 mm 1 mps 599 mmHg 67%
08:00 +16°C° 0 mm 1 mps 600 mmHg 62%
09:00 +17°C° 0 mm 2 mps 600 mmHg 58%
10:00 +19°C° 0.1 mm 2 mps 600 mmHg 54%
11:00 +20°C° 0.1 mm 2 mps 601 mmHg 50%
12:00 +21°C° 0.1 mm 2 mps 601 mmHg 46%
13:00 +22°C° 0 mm 3 mps 601 mmHg 44%
14:00 +24°C° 0 mm 3 mps 601 mmHg 42%
15:00 +24°C° 0 mm 3 mps 601 mmHg 39%
16:00 +24°C° 0.1 mm 3 mps 601 mmHg 40%
17:00 +22°C° 0.1 mm 3 mps 601 mmHg 41%
18:00 +23°C° 0.1 mm 2 mps 601 mmHg 42%
19:00 +21°C° 0.1 mm 2 mps 601 mmHg 47%
20:00 +21°C° 0.1 mm 1 mps 601 mmHg 51%
21:00 +20°C° 0.1 mm 1 mps 601 mmHg 56%
22:00 +19°C° 0 mm 1 mps 601 mmHg 57%
23:00 +19°C° 0 mm 1 mps 601 mmHg 59%

20 August, Thursday

Time Temperature Precipitation Wind Pressure Humidity
00:00 +18°C° 0 mm 1 mps 601 mmHg 61%
01:00 +16°C° 0 mm 1 mps 600 mmHg 64%
02:00 +16°C° 0 mm 1 mps 600 mmHg 66%
03:00 +15°C° 0 mm 1 mps 600 mmHg 69%
04:00 +15°C° 0 mm 1 mps 600 mmHg 70%
05:00 +15°C° 0 mm 1 mps 600 mmHg 71%
06:00 +15°C° 0 mm 1 mps 600 mmHg 72%
07:00 +16°C° 0 mm 1 mps 601 mmHg 67%
08:00 +18°C° 0 mm 1 mps 601 mmHg 62%
09:00 +18°C° 0 mm 2 mps 601 mmHg 57%
10:00 +19°C° 0 mm 2 mps 602 mmHg 52%
11:00 +21°C° 0 mm 2 mps 602 mmHg 48%
12:00 +22°C° 0 mm 3 mps 602 mmHg 43%
13:00 +24°C° 0 mm 3 mps 602 mmHg 40%
14:00 +25°C° 0 mm 3 mps 602 mmHg 38%
15:00 +26°C° 0 mm 3 mps 602 mmHg 35%
16:00 +25°C° 0 mm 3 mps 602 mmHg 35%
17:00 +25°C° 0 mm 3 mps 602 mmHg 35%
18:00 +24°C° 0 mm 3 mps 602 mmHg 36%
19:00 +23°C° 0 mm 2 mps 602 mmHg 39%
20:00 +22°C° 0 mm 1 mps 602 mmHg 43%
21:00 +21°C° 0 mm 1 mps 602 mmHg 46%
22:00 +20°C° 0 mm 1 mps 601 mmHg 47%
23:00 +20°C° 0 mm 1 mps 601 mmHg 48%
Show more